Hagerstown, MD

9:57 PM EDT on August 23, 2017 (GMT -0400)
Hagerstown Regional-Henson

Weather History for KHGR - October, 2012

Change the Weather History Date:

Friday, October 5, 2012

  Actual Average Record
Temperature  
Mean Temperature 67 °F 58 °F  
Max Temperature 78 °F 68 °F 86 °F (2013)
Min Temperature 56 °F 48 °F 35 °F (1996)
Degree Days  
Heating Degree Days 0 7  
Month to date heating degree days 12 33  
Since 1 July heating degree days 78 107  
Cooling Degree Days 2 1  
Month to date cooling degree days 10 5  
Year to date cooling degree days 1275 964  
Growing Degree Days 16 (Base 50)    
Moisture  
Dew Point 55 °F    
Average Humidity 68    
Maximum Humidity 93    
Minimum Humidity 42    
Precipitation  
Precipitation 0.00 in 0.11 in 0.01 in (1998)
Month to date precipitation 0.58 0.59  
Year to date precipitation 28.32 30.89  
Sea Level Pressure  
Sea Level Pressure 30.09 in    
Wind  
Wind Speed 6 mph (SSW)    
Max Wind Speed 13 mph    
Max Gust Speed 18 mph    
Visibility 10 miles    
Events      
T = Trace of Precipitation, MM = Missing Value Source: NWS Daily Summary

Daily Weather History Graph

Daily Weather History Graph

Search for Another Location

Airport or City:

Trip Planner

Search our weather history database for the weather conditions in past years. The results will help you decide how hot, cold, wet, or windy it might be!

Date:

Astronomy

Oct. 05, 2012 Rise Set
Actual Time 7:11 AM EDT 6:46 PM EDT
Civil Twilight 6:44 AM EDT 7:13 PM EDT
Nautical Twilight 6:13 AM EDT 7:44 PM EDT
Astronomical Twilight 5:41 AM EDT 8:15 PM EDT
Moon 10:08 PM EDT (10/5) 12:16 PM EDT (10/5)
Length of Visible Light 12h 28m
Length of Day
11h 34m
Waning Gibbous, 74% of the Moon is Illuminated
Oct 5
Waning Gibbous
Oct 8
Last Quarter
Oct 15
New
Oct 21
First Quarter
Oct 29
Full

Hourly Weather History & Observations

Time (EDT) Temp. Dew Point Humidity Pressure Visibility Wind Dir Wind Speed Gust Speed Precip Events Conditions
12:53 AM 62.1 °F 52.0 °F 70% 30.16 in 10.0 mi SSW 3.5 mph - N/A   Clear
1:53 AM 60.1 °F 53.1 °F 78% 30.17 in 10.0 mi South 3.5 mph - N/A   Clear
2:53 AM 60.1 °F 52.0 °F 75% 30.16 in 10.0 mi ESE 3.5 mph - N/A   Clear
3:53 AM 57.0 °F 53.1 °F 87% 30.16 in 10.0 mi Calm Calm - N/A   Clear
4:53 AM 55.9 °F 53.1 °F 90% 30.16 in 10.0 mi South 3.5 mph - N/A   Clear
5:53 AM 57.0 °F 53.1 °F 87% 30.16 in 10.0 mi South 6.9 mph - N/A   Clear
6:53 AM 55.9 °F 52.0 °F 87% 30.16 in 10.0 mi SSE 5.8 mph - N/A   Clear
7:53 AM 57.0 °F 53.1 °F 87% 30.17 in 10.0 mi South 4.6 mph - N/A   Clear
8:53 AM 60.1 °F 54.0 °F 80% 30.18 in 10.0 mi SE 4.6 mph - N/A   Clear
9:53 AM 66.0 °F 55.0 °F 68% 30.17 in 10.0 mi SSW 3.5 mph - N/A   Clear
10:53 AM 68.0 °F 55.9 °F 65% 30.15 in 10.0 mi West 6.9 mph - N/A   Clear
11:53 AM 71.1 °F 57.0 °F 61% 30.13 in 10.0 mi SW 9.2 mph - N/A   Clear
1:53 PM 75.9 °F 55.9 °F 50% 30.08 in 10.0 mi West 10.4 mph 17.3 mph N/A   Partly Cloudy
2:53 PM 77.0 °F 55.9 °F 48% 30.05 in 10.0 mi West 11.5 mph - N/A   Clear
3:53 PM 78.1 °F 54.0 °F 43% 30.04 in 10.0 mi WSW 10.4 mph - N/A   Clear
4:53 PM 77.0 °F 54.0 °F 45% 30.03 in 10.0 mi SW 5.8 mph - N/A   Clear
5:53 PM 75.9 °F 55.0 °F 48% 30.02 in 10.0 mi SW 5.8 mph - N/A   Clear
6:53 PM 73.0 °F 55.0 °F 53% 30.01 in 10.0 mi South 4.6 mph - N/A   Clear
7:53 PM 70.0 °F 57.0 °F 63% 30.01 in 10.0 mi South 5.8 mph - N/A   Clear
8:53 PM 68.0 °F 55.9 °F 65% 30.01 in 10.0 mi South 5.8 mph - N/A   Clear
9:53 PM 66.9 °F 55.9 °F 68% 29.99 in 10.0 mi South 4.6 mph - N/A   Clear
10:53 PM 64.0 °F 55.9 °F 75% 29.97 in 10.0 mi South 3.5 mph - N/A   Clear
11:53 PM 63.0 °F 55.9 °F 78% 29.96 in 10.0 mi SSE 4.6 mph - N/A   Clear